Погода в Смидовиче

Погода в Смидовиче : погода сейчас, прогноз погоды и архив. Всё, что Вы хотите узнать о погоде в Смидовиче!

Поиск расширенной информации на нашем сайте:

Другие новости

Новости СМИ2

Главная страница сайта

Новости сайта

03.07.2017

Напоминаем, что на нашем специализированном сайте Метеоцентр.Азия вы можете получить высокодетализированные автоматические прогнозы погоды по пунктам России, СНГ и мира в авиационном формате (включающие направление и скорость ветра, видимость, явления погоды, количество и форму облачности, нижнюю и верхнюю границу облачности).


Погода в Смидовиче - сегодня

Время (UTC), дата Ветер
(°,м/с) 
Видим.   Явления Облачность Т
(°С)
Тd
(°С)
f(%) Тe
(°С)
Pmin
(гПа)
dP
(гПа)
Po
(мм)
O2
(г/м3)
Тmin Tmax R s Состояние
почвы
06 17.06.18 260 (З) 20000 м    8/6 600 м кучево-дожд., средняя 
[Cb cap|Ac As]
+20.5 +11.7 57 +24  1001.3  -0.1  747  278           
12 17.06.18 150 (ЮВ) 20000 м    3/0 средняя 
[Ac cuf]
+13.9 +10.9 82 +17  1002.8  748  285           
15 17.06.18 170 (Ю) 20000 м    3/0 средняя 
[Ac trans]
+15.1 +13.6 91 +21  1002.5  -0.3  747  283           
18 17.06.18 170 (Ю) 20000 м    ясно 
+13.3 +12.5 95 +18  1002.3  -0.2  747  285           
21 17.06.18 220 (ЮЗ) 0500 м  туман  8/8 300 м 
[St]
+16.4 +15.6 95 +28  1003.1  0.8  748  281  +12        сухая 
00 18.06.18 220 (ЮЗ) 20000 м  {туман}  10/0 средняя, верхняя 
[Ac cast|Ci]
+20.9 +14.6 67 +29  1003.1  0.1  748  277           
03 18.06.18 220 (ЮЗ) 20000 м    10/8 600 м кучево-дожд., средняя 
[Cb cap|Ac und]
+21.9 +16.1 70 +33  1002.5  -0.5  748  275           
06 18.06.18 250 (З) 4000 м  ливневой дождь  10/10 600 м кучево-дожд. 
[Cb cap]
+19 +16.1 83 +31  1001.4  -1.2  747  278           
12 18.06.18 090 (В) 4000 м  ливневой дождь{гроза}  10/10 600 м кучево-дожд. 
[Cb cap]
+17.2 +16.2 94 +30  999.3  -1.4  745  279           
15 18.06.18 120 (ЮВ) 4000 м  ливневой дождь  10/10 600 м кучево-дожд. 
[Cb cap]
+16.7 +15.8 94 +26  996  -3.2  743  279           
21 18.06.18 190 (Ю) 20000 м  {ливн. осадки}  10/10 600 м кучево-дожд. 
[Cb cap]
+17.7 +15.8 89 +28  994.2  0.4  741  277  +16.5    25    мокрая 
06 19.06.18 230 (ЮЗ) 5{13}  20000 м    10/6 600 м кучево-дожд., средняя, верхняя 
[Cb cap|Ac lent|Ci fib]
+20.8 +14.6 68 +29  996.4  743  275           
12 19.06.18 240 (ЮЗ) 20000 м    10/4 600 м кучево-дожд., средняя, верхняя 
[Cb cap|Ac lent|Ci fib]
+16.4 +13.7 84 +25  998.7  0.7  745  280           
15 19.06.18 160 (Ю) 20000 м    10/0 средняя, верхняя 
[Ac lent|Ci fib]
+12.6 +11.4 92 +17  999.3  0.5  745  285           
18 19.06.18 190 (Ю) 20000 м    10/0 средняя 
[Ac und]
+12.1 +11.3 95 +16  998.8  -0.5  745  285           
21 19.06.18 тихо ()   10 км  слаб. ливневой дождь  10/8 600 м кучево-дожд., средняя 
[Cb cap|Ac lent]
+14.2 +13.4 95 +20  998.7  745  282  +11.6    0.0    влажная 
00 20.06.18 030 (СВ) 10 км  слаб. ливневой дождь  10/10 600 м кучево-дожд. 
[Cb cap]
+14.8 +13.8 94 +23  998.7  0.1  745  282           
03 20.06.18 010 (С) 10 км  слаб. ливневой дождь  10/10 600 м кучево-дожд. 
[Cb cap]
+15.2 +14 93 +23  998.5  -0.2  744  281           
06 20.06.18 020 (С) 10 км  слаб. ливневой дождь  10/10 600 м кучево-дожд. 
[Cb cap]
+15.7 +14.3 91 +24  997.4  -1  744  280           
12 20.06.18 020 (С) 20000 м  {ливн. осадки}  10/6 600 м кучево-дожд., средняя 
[Cb cap|Ac As]
+14.1 +12.5 90 +20  997.2  0.1  743  282           
15 20.06.18 020 (С) 20000 м    10/6 600 м кучево-дожд., средняя 
[Cb cap|Ac As]
+14.2 +13 92 +21  996.8  -0.4  743  282           
18 20.06.18 330 (СЗ) 20000 м    10/6 600 м кучево-дожд., средняя 
[Cb cap|Ac trans]
+13.5 +12.6 94 +20  996.3  -0.5  743  283           
00 21.06.18 010 (С) 20000 м  {ливн. осадки}  10/10 600 м кучево-дожд. 
[Cb cap]
+15.2 +12.7 85 +20  996.6  743  281           
03 21.06.18 020 (С) 20000 м    10/6 600 м кучево-дожд., средняя 
[Cb cap|Ac lent]
+17.2 +12.8 75 +23  996.5  0.1  743  279           
06 21.06.18 010 (С) 20000 м    8/4 600 м кучево-дожд., средняя 
[Cb cap|Ac lent]
+19.8 +13 65 +27  995.5  -0.9  742  276           
Время (UTC), дата Ветер
(°,м/с) 
Видим.   Явления Облачность Т
(°С)
Тd
(°С)
f(%) Тe
(°С)
Pmin
(гПа)
dP
(гПа)
Po
(мм)
O2
(г/м3)
Тmin Tmax R s Состояние
почвы

Для получения пояснительной информации подведите курсор к названию столбца.

ПОГОДА в Смидовиче - архив

Всё, что Вы хотите узнать о погоде в Смидовиче - удобно и подробно!

Выберите нужную дату (начиная с 1 января 2015* года) и нажмите кнопку "Найти".
Будут отображены архивные сводки погоды по пункту Смидович, начиная с указанной даты.


Отображать данные в формате CSV (для использования в таблицах Excel)


Внимание! Наш архив погоды предназначен исключительно для личного некоммерческого использования в познавательных целях. Если Вам необходимы официальные справки о состоянии погоды (для производственных, юридических, коммерческих и т.п. целей), обращайтесь в органы Росгидромета.

*Примечание: данная дата относится к архиву по метеостанциям СССР (Россия, СНГ, Балтия).
Архив по метеостанциям Зарубежной Европы и Азии (кроме Китая) хранится 10 дней, по другим регионам земного шара (Китай, Африка, Америка, Австралия, Океания) - 1 день.

Смидович - район местоположения метеостанции


Название, широта, долгота, высота метеостанции:
Смидович 48.6°ш. 133.8°д. 52 м над ур. моря [Российская Федерация]

Дополнительная информация

В oтличие oт бoльшинства пoгoдных сайтoв мы публикуем пoдрoбную метеoинфoрмацию в детальнoм прoфессиoнальнoм фoрмате.

Характеристики температуры и влажнoсти вoздуха измеряются на высoте 2 м в тени вдали oт зданий и деревьев.
Скoрoсть ветра измеряется на высoте 10 м (на урoвне рoста челoвека скoрoсть ветра ниже в 1.5-2 раза). Если метеoстанция нахoдится в гoрoде или в лесу, тo скoрoсть ветра занижена на 2-4 м/с пo сравнению с oткрытым местoм. Скoрoсть ветра над акватoриями крупных рек и oзёр, а также на вершинах хoлмoв на 2-5 м/с выше, чем в oбычных услoвиях.
Атмoсфернoе давление в разных тoчках местнoсти мoжет значительнo oтличаться oт давления на метеoстанции, в зависимoсти oт услoвий рельефа (при пoдъёме на 10 м давление пoнижается примернo на 1 мм рт.ст.).